Hourly Data Report for April 09, 2004

SHERBROOKE A
QUEBEC

45°26'00.000" N
71°41'00.000" W
241.40 m
7028124
71610
YSC

Download Data

Hourly Data (April 2004)
Hourly Data Report for April 9, 2004
TIME
LST
Temp Definition
°C
Dew Point Definition
°C
Rel Hum Definition
%
Precip. Amount Definition
mm

Wind Dir Definition
10's deg

Wind Spd Definition
km/h
Visibility Definition
km
Stn Press Definition
kPa
Hmdx Definition


Wind Chill Definition


Weather Definition


00:00 0.3 -2.9 79   21 6 15.0 97.51      
01:00 0.6 -2.6 79   24 7 15.0 97.51      
02:00 0.2 -2.7 81   33 4 15.0 97.52      
03:00 -0.6 -2.8 85   26 11 15.0 97.53   -4  
04:00 -2.6 -5.3 82   28 7 15.0 97.57   -5  
05:00 -3.0 -5.3 84   19 4 15.0 97.64   -5  
06:00 -2.7 -6.5 75   27 7 15.0 97.72   -6 Heavy Snow
07:00 -0.9 -7.0 63   29 11 24.1 97.77   -5 Mainly Clear
08:00 0.3 -8.4 52   28 7 24.1 97.79     Mainly Clear
09:00 1.5 -8.1 49   25 13 24.1 97.81     Mainly Clear
10:00 1.9 -6.5 54   28 17 24.1 97.84     Mostly Cloudy
11:00 3.0 -6.5 50   28 17 24.1 97.86     Mostly Cloudy
12:00 3.6 -6.6 47   26 15 24.1 97.84     Mainly Clear
13:00 4.0 -6.8 45   30 20 24.1 97.83     Mostly Cloudy
14:00 4.8 -6.7 43   26 11 24.1 97.82     Mostly Cloudy
15:00 5.1 -5.9 45   28 20 24.1 97.81     Mainly Clear
16:00 5.5 -5.5 45   30 15 24.1 97.82     Mainly Clear
17:00 5.5 -5.8 44   29 15 15.0 97.83      
18:00 4.2 -5.9 48   26 17 15.0 97.85      
19:00 2.4 -5.6 55   26 11 15.0 97.92      
20:00 1.1 -4.9 64   21 6 15.0 97.93      
21:00 1.4 -4.9 63   24 7 15.0 97.91      
22:00 1.0 -4.3 68     0 15.0 97.88      
23:00 2.1 -3.5 66   32 13 15.0 97.93     Snow

Notes on Data Quality.

Legend

  • E = Estimated
  • M = Missing
  • NA = Not Available*
  • [empty] = Indicates an unobserved value
Date modified: